EW8225 Weather Reports


time (UTC)temp
C
wind
direction
speed
KPH
gust
KPH
rain 1hr
cm
rain 24hr
cm
rain mn
cm
humidity
%
barometer
mb
20191022155551 15 0.0 0.0 0.00 0.00 0.00 71 1024.0
20191022154552 15 0.0 1.6 0.00 0.00 0.00 69 1024.1
20191022153544 15 0.0 0.0 0.00 0.00 0.00 68 1024.0
20191022152546 16 0.0 1.6 0.00 0.00 0.00 68 1024.0
20191022151536 16 0.0 1.6 0.00 0.00 0.00 67 1024.1
20191022150538 16 0.0 0.0 0.00 0.00 0.00 65 1024.3
20191022145534 16 0.0 1.6 0.00 0.00 0.00 63 1024.1
20191022144530 17 0.0 0.0 0.00 0.00 0.00 59 1024.2
20191022143526 18 0.0 1.6 0.00 0.00 0.00 56 1024.2
20191022142523 20 225 0.0 3.2 0.00 0.00 0.00 52 1024.2
20191022141620 21 0.0 3.2 0.00 0.00 0.00 51 1024.1
20191022140611 20 225 1.6 3.2 0.00 0.00 0.00 52 1024.2
20191022135607 20 270 0.0 3.2 0.00 0.00 0.00 55 1024.3
20191022134608 18 330 0.0 3.2 0.00 0.00 0.00 61 1024.4
20191022133605 17 0.0 3.2 0.00 0.00 0.00 67 1024.4
20191022132556 16 225 0.0 3.2 0.00 0.00 0.00 67 1024.4
20191022131557 16 180 0.0 3.2 0.00 0.00 0.00 66 1024.4
20191022130548 16 225 0.0 4.8 0.00 0.00 0.00 64 1024.5
20191022125545 17 180 0.0 3.2 0.00 0.03 0.00 63 1024.6
20191022124546 17 146 1.6 3.2 0.00 0.03 0.00 64 1024.6
20191022123543 16 27 0.0 4.8 0.00 0.03 0.00 67 1024.8
20191022122539 16 180 0.0 3.2 0.00 0.03 0.00 68 1024.9
20191022121535 16 0.0 3.2 0.00 0.03 0.00 69 1024.7
20191022120527 16 0.0 0.0 0.00 0.03 0.00 71 1024.8
20191022115528 15 0.0 1.6 0.00 0.03 0.00 72 1024.8
20191022114524 15 0.0 0.0 0.00 0.03 0.00 74 1024.9
20191022113521 15 0.0 0.0 0.00 0.03 0.00 74 1025.0
20191022112613 15 0.0 1.6 0.00 0.03 0.00 74 1025.2
20191022111608 15 0.0 3.2 0.00 0.03 0.00 74 1025.3
20191022110610 15 135 0.0 3.2 0.00 0.03 0.00 74 1025.4
20191022105606 15 180 1.6 3.2 0.00 0.03 0.00 75 1025.5
20191022104602 14 180 0.0 3.2 0.00 0.03 0.00 76 1025.6
20191022103559 13 152 1.6 4.8 0.00 0.03 0.00 76 1025.7
20191022102550 13 177 3.2 6.4 0.00 0.03 0.00 75 1025.5
20191022101551 14 145 0.0 4.8 0.00 0.03 0.00 75 1025.6
20191022100547 13 0.0 1.6 0.00 0.03 0.00 75 1025.5
20191022095544 13 135 0.0 3.2 0.00 0.03 0.00 76 1025.5
20191022094535 13 135 1.6 4.8 0.00 0.03 0.00 75 1025.6
20191022093536 13 180 0.0 3.2 0.00 0.03 0.00 74 1025.5
20191022092533 13 0 0.0 3.2 0.00 0.03 0.00 75 1025.3
20191022091524 13 180 0.0 3.2 0.00 0.03 0.00 77 1025.2
20191022090525 12 133 1.6 3.2 0.00 0.03 0.00 77 1025.1
20191022085521 12 225 0.0 4.8 0.00 0.03 0.00 78 1025.2
20191022084618 12 0.0 3.2 0.00 0.03 0.00 79 1025.1
20191022083609 12 135 1.6 4.8 0.00 0.03 0.00 78 1024.9
20191022082610 12 168 1.6 3.2 0.00 0.03 0.00 78 1024.7
20191022081607 12 158 1.6 8.0 0.00 0.03 0.00 78 1024.7
20191022080603 11 180 1.6 4.8 0.00 0.03 0.00 79 1024.6
20191022075559 11 161 3.2 6.4 0.00 0.03 0.00 79 1024.6
20191022074555 11 169 1.6 4.8 0.00 0.03 0.00 79 1024.5
20191022073551 11 139 1.6 4.8 0.00 0.03 0.00 79 1024.5
20191022072547 11 180 0.0 3.2 0.00 0.03 0.00 80 1024.3
20191022071544 11 176 1.6 3.2 0.00 0.03 0.00 80 1024.5
20191022070540 11 202 1.6 6.4 0.00 0.03 0.00 80 1024.2
20191022065537 11 180 0.0 4.8 0.00 0.03 0.00 80 1024.0
20191022064533 11 158 1.6 6.4 0.00 0.03 0.00 80 1024.1
20191022063529 11 194 1.6 3.2 0.00 0.03 0.00 81 1024.1
20191022062521 11 183 1.6 4.8 0.00 0.03 0.00 81 1024.0
20191022061517 11 0.0 1.6 0.00 0.03 0.00 81 1023.7
20191022060619 11 0.0 1.6 0.00 0.03 0.00 81 1023.4
20191022055610 11 135 0.0 4.8 0.00 0.03 0.00 81 1023.3
20191022054606 11 165 0.0 3.2 0.00 0.03 0.00 81 1023.1
20191022053602 11 124 1.6 3.2 0.00 0.03 0.00 81 1023.2
20191022052603 11 139 1.6 6.4 0.00 0.03 0.00 81 1023.4
20191022051605 11 135 1.6 4.8 0.00 0.03 0.00 81 1023.0
20191022050556 11 189 1.6 4.8 0.00 0.03 0.00 81 1023.0
20191022045553 11 180 0.0 3.2 0.00 0.03 0.00 81 1022.6
20191022044549 11 101 0.0 3.2 0.00 0.03 0.00 81 1022.4
20191022043540 11 165 0.0 3.2 0.00 0.03 0.00 81 1022.4
20191022042541 11 162 1.6 6.4 0.00 0.03 0.00 80 1022.6
20191022041537 11 155 1.6 3.2 0.00 0.03 0.00 80 1022.5
20191022040534 11 0.0 1.6 0.00 0.03 0.00 80 1022.6
20191022035525 11 180 0.0 3.2 0.00 0.03 0.00 80 1022.8
20191022034526 11 188 1.6 3.2 0.00 0.03 0.00 80 1022.7
20191022033518 11 173 1.6 3.2 0.00 0.03 0.00 80 1022.9
20191022032619 11 351 1.6 4.8 0.00 0.03 0.00 80 1022.9
20191022031610 11 135 1.6 6.4 0.00 0.03 0.00 81 1022.8
20191022030607 11 153 1.6 3.2 0.00 0.03 0.00 82 1023.0
20191022025608 11 164 3.2 6.4 0.00 0.03 0.00 81 1022.8
20191022024604 11 135 0.0 3.2 0.00 0.03 0.00 81 1022.7
20191022023600 11 163 1.6 6.4 0.00 0.03 0.00 81 1022.6
20191022022557 11 135 0.0 3.2 0.00 0.03 0.00 81 1022.5
20191022021548 11 0.0 3.2 0.00 0.03 0.00 81 1022.6
20191022020544 11 0.0 0.0 0.00 0.03 0.00 81 1022.7
20191022015541 11 0.0 1.6 0.00 0.03 0.00 81 1022.8
20191022014542 11 135 0.0 3.2 0.00 0.03 0.00 81 1022.8
20191022013533 11 214 0.0 4.8 0.00 0.03 0.00 82 1022.9
20191022012534 11 180 0.0 3.2 0.00 0.03 0.00 82 1022.9
20191022011532 11 180 0.0 3.2 0.00 0.03 0.00 82 1022.8
20191022010527 11 160 1.6 3.2 0.00 0.03 0.00 81 1022.8
20191022005523 11 180 0.0 4.8 0.00 0.03 0.00 81 1022.8
20191022004620 11 157 1.6 4.8 0.00 0.03 0.00 81 1022.7
20191022003616 11 135 0.0 3.2 0.00 0.03 0.00 81 1022.6
20191022002612 11 201 0.0 3.2 0.00 0.03 0.00 82 1022.7
20191022001603 11 186 1.6 6.4 0.00 0.03 0.00 82 1022.9
20191022000600 11 0.0 1.6 0.00 0.03 0.00 82 1022.9
20191021235601 11 135 0.0 3.2 0.00 0.03 0.00 81 1022.7
20191021234557 11 135 0.0 4.8 0.00 0.03 0.00 80 1022.5
20191021233554 11 165 0.0 3.2 0.00 0.03 0.00 80 1022.5
20191021232550 11 135 0.0 3.2 0.00 0.03 0.00 79 1022.5
20191021231541 11 158 0.0 3.2 0.00 0.03 0.00 78 1022.2
20191021230542 11 135 0.0 3.2 0.00 0.03 0.00 77 1022.2
20191021225539 12 0.0 3.2 0.00 0.03 0.00 75 1022.2
20191021224535 12 90 0.0 4.8 0.00 0.03 0.00 75 1022.2
20191021223532 12 148 3.2 8.0 0.00 0.03 0.00 74 1022.2
20191021222528 12 156 3.2 6.4 0.00 0.03 0.00 74 1022.1
20191021221519 12 176 3.2 6.4 0.00 0.03 0.00 74 1022.0
20191021220525 13 135 3.2 4.8 0.00 0.03 0.00 73 1022.0
20191021215612 13 161 3.2 6.4 0.00 0.03 0.03 73 1021.9
20191021214613 13 228 1.6 6.4 0.00 0.03 0.03 72 1021.8
20191021213609 13 158 1.6 8.0 0.00 0.03 0.03 72 1021.8
20191021212606 13 255 1.6 6.4 0.00 0.03 0.03 72 1021.6
20191021211602 13 146 3.2 6.4 0.00 0.05 0.03 72 1021.7
20191021210558 13 155 3.2 12.9 0.00 0.10 0.03 72 1021.5
20191021205555 13 191 3.2 8.0 0.00 0.13 0.03 72 1021.5
20191021204551 13 176 1.6 4.8 0.00 0.18 0.03 72 1021.5
20191021203548 13 145 1.6 6.4 0.00 0.20 0.03 72 1021.6
20191021202544 13 149 3.2 6.4 0.00 0.23 0.03 72 1021.6
20191021201540 13 183 1.6 4.8 0.00 0.23 0.03 71 1021.6
20191021200537 13 135 1.6 3.2 0.00 0.23 0.03 71 1021.5
20191021195528 13 180 0.0 3.2 0.00 0.23 0.03 70 1021.5
20191021194529 13 135 1.6 3.2 0.00 0.23 0.03 70 1021.4
20191021193525 13 119 0.0 4.8 0.00 0.23 0.03 70 1021.4
20191021192522 13 206 1.6 4.8 0.00 0.28 0.03 70 1021.3
20191021191618 13 154 1.6 4.8 0.00 0.28 0.03 70 1021.5
20191021190614 13 154 1.6 4.8 0.00 0.28 0.03 69 1021.3
20191021185612 13 160 1.6 6.4 0.00 0.28 0.03 69 1021.1
20191021184607 13 165 0.0 3.2 0.00 0.28 0.03 67 1021.0
20191021183604 13 135 1.6 4.8 0.00 0.28 0.03 67 1020.9
20191021182600 13 180 0.0 6.4 0.00 0.28 0.03 67 1020.8
20191021181556 13 315 0.0 3.2 0.00 0.28 0.03 67 1020.9
20191021180552 14 0.0 3.2 0.00 0.28 0.03 66 1021.2
20191021175549 14 180 0.0 3.2 0.00 0.28 0.03 65 1020.8
20191021174540 14 97 1.6 6.4 0.00 0.28 0.03 65 1020.7
20191021173541 14 154 3.2 6.4 0.00 0.30 0.03 66 1020.6
20191021172538 14 223 3.2 9.7 0.00 0.30 0.03 69 1020.7
20191021171534 13 0.0 3.2 0.00 0.30 0.03 70 1020.5
20191021170530 14 135 0.0 4.8 0.00 0.33 0.03 69 1020.2
20191021165526 14 0.0 3.2 0.00 0.33 0.03 69 1020.2
20191021164522 14 180 0.0 3.2 0.00 0.33 0.03 69 1020.0
20191021163619 14 158 0.0 3.2 0.00 0.36 0.03 67 1019.8
20191021162616 15 224 1.6 6.4 0.00 0.36 0.03 67 1019.7
20191021161612 15 213 1.6 4.8 0.00 0.36 0.03 66 1019.7
20191021160608 15 0.0 1.6 0.00 0.38 0.03 63 1019.5